STARLINK-34912, 65378

Orbit data source: Space-Track

STARLINK-34912, 65378 is a payload satellite owned by SpaceX/Seattle (US) in LEO that was launched on Thu, 28 Aug 2025 UTC via an FALCON 9 launch vehicle from the Air Force Eastern Test Range (AFETR). Payload-class satellites include a variety of spacecraft equipped with specific instruments for various scientific and technological missions. These include communications satellites like Starlink; space stations such as the ISS; scientific satellites like the Hubble; Earth observation satellites from companies like Planet Labs, Umbra, and HawkEye 360; GPS; miniature CubeSats for education and research; and military/defense satellites.

Loading next visibility...
Identifier
65378, 2025-190AD
Orbit
LEO
Country
Flag of USUS
Related business
Manufacturer
SpaceX/Seattle
Mission
Operational Commercial Communications
Bus & Motor
STARLINK V2MO, Unknown motor
Mass
575 kg wet, ~530 kg dry
Launch date (UTC)
2025-08-28 (7 months ago)
Launch vehicle
FALCON 9
Launch site
Air Force Eastern Test Range (AFETR)
Object type
Payload
Rocket body
Debris
Shape & HBR
Box + 2 Pan, 17.7 m
Radar Cross Section
36.964 m², Large (>1 m²)

Expand to show TLE details & history
Last TLE update: 7 hours ago

TLE from 7 hours ago
0 STARLINK-34912
1 65378U 25190AD  26094.25435885  .00028733  00000-0  97818-3 0  9996
2 65378  53.1609  49.1135 0001328 121.1351 238.9780 15.30210360 33673
Epoch: 2026-04-04T06:06Z
TLE epoch observation values (Epoch: 2026-04-04T06:06:16.604Z)
Latitude
-0.00004°
Longitude
124.96751°
Altitude
476.553 km
Speed
7.628 km/s
True Right ascension
03h 16m 27s
True Declination
0° 00' 00"
Sunlit
Object was in daylight at epoch
Visualization orbit readout
Latitude
Unknown
Longitude
Unknown
Altitude
Unknown
Speed
Unknown
Apparent Right ascension
Unknown
Apparent Declination
Unknown
Sunlit
N/A
Visualization observer readout
Local Sidereal Time
19:24:27
Azimuth
Unknown
Elevation
Unknown
Doppler factor
Unknown
Orbital elements
Apogee altitude
476.351 km
Perigee altitude
474.53 km
Semi-major axis
6,853.577 km
Eccentricity
0.00013
Inclination
53.1609°
RAAN
49.1135°
Arg. of periapsis
121.1351°
True anomaly
238.96496°
Mean anomaly
238.978°
Eccentric anomaly
238.97148°
Mean motion
3.82531 °/min
Orbital period
94.11 mins
BSTAR
0.00097818
Loading maneuver chart data...
Computing Atmospheric mass density...
Loading historical data...
Loading historical data...
Loading historical data...
Loading historical data...
Loading historical data...
Loading historical data...
Loading historical data...

Documentation

Showing up to 5 results
|